Location: Unspecified
(54.1780°N, 0.0000°E)
Time: 15:16:23
(UTC+00:00)

Transit 2A - Pass Details

Date: 23 June 2019
Orbit: 597 x 962 km, 66.7° (Epoch: 19 August)

Event Time Altitude Azimuth Distance (km) Brightness Sun altitude
Rises 23:17:47 0° 183° (S) 3,626 - -11.8°
Reaches altitude 10° 23:20:34 10° 175° (S) 2,692 - -11.9°
Exits shadow 23:21:51 16° 168° (SSE) 2,301 7.8 -11.9°
Maximum altitude 23:26:07 33° 114° (ESE) 1,557 7.3 -12.0°
Drops below altitude 10° 23:31:33 10° 53° (NE) 2,641 9.2 -12.1°
Sets 23:34:15 0° 44° (NE) 3,548 10.0 -12.2°
